Location: Harwich
(41.7160°N, 69.9939°W)
Time: 13:21:43
(UTC+01:00)

Transit 4A - All Passes

Search period start: 05 March 2024 00:00
Search period end: 15 March 2024 00:00
Orbit: 870 x 973 km, 66.8° (Epoch: 04 March)

Date Brightness Start Highest point End Pass type
(mag) Time Alt. Az. Time Alt. Az. Time Alt. Az.
05 Mar - 04:20:26 10° S 04:26:24 52° ESE 04:32:15 10° NE night (unlit)
05 Mar - 06:07:38 10° WSW 06:12:59 30° NW 06:18:15 10° NNE visible
05 Mar - 11:38:24 10° N 11:41:01 13° NNE 11:43:37 10° ENE visible
05 Mar - 13:22:55 10° NNW 13:28:42 57° NE 13:34:24 10° SE daylight
05 Mar - 15:10:10 10° WNW 15:14:33 22° WSW 15:18:53 10° SSW daylight
06 Mar - 02:48:38 10° ESE 02:50:03 11° E 02:51:29 10° E night (unlit)
06 Mar - 04:29:14 10° SSW 04:35:25 76° ESE 04:41:27 10° NNE night (unlit)
06 Mar - 06:17:39 10° W 06:22:21 22° NW 06:26:59 10° N visible
06 Mar - 11:46:46 10° N 11:50:34 17° NE 11:54:19 10° E daylight
06 Mar - 13:31:57 10° NNW 13:37:49 83° ENE 13:43:37 10° SSE daylight
06 Mar - 15:20:23 10° WNW 15:23:18 14° WSW 15:26:14 10° SW daylight
07 Mar - 02:54:55 10° SE 02:58:48 18° ESE 03:02:39 10° ENE night (unlit)
07 Mar - 04:38:17 10° SW 04:44:29 76° WNW 04:50:32 10° NNE night (unlit)
07 Mar - 06:28:00 10° WNW 06:31:49 17° NW 06:35:35 10° N visible
07 Mar - 11:55:24 10° N 12:00:00 23° NE 12:04:33 10° E daylight
07 Mar - 13:41:03 10° NW 13:46:50 67° WSW 13:52:36 10° SSE daylight
08 Mar - 03:02:36 10° SSE 03:07:38 26° ESE 03:12:33 10° NE night (unlit)
08 Mar - 04:47:36 10° SW 04:53:38 53° NW 04:59:31 10° NNE night (unlit)
08 Mar - 06:38:49 10° WNW 06:41:22 13° NNW 06:43:54 10° N visible
08 Mar - 12:04:09 10° NNW 12:09:21 32° NE 12:14:30 10° ESE daylight
08 Mar - 13:50:18 10° NW 13:55:49 45° WSW 14:01:17 10° S daylight
09 Mar - 03:10:50 10° S 03:16:30 39° ESE 03:22:04 10° NE night (unlit)
09 Mar - 04:57:11 10° WSW 05:02:51 38° NW 05:08:25 10° NNE visible
09 Mar - 10:29:25 10° NNE 10:30:39 11° NNE 10:31:53 10° NE visible
09 Mar - 12:13:02 10° NNW 12:18:37 44° NE 12:24:09 10° SE daylight
09 Mar - 13:59:45 10° NW 14:04:42 30° WSW 14:09:38 10° SSW daylight
10 Mar - 03:19:25 10° SSW 03:25:28 58° ESE 03:31:23 10° NE night (unlit)
10 Mar - 05:07:00 10° WSW 05:12:09 27° NW 05:17:13 10° N visible
10 Mar - 10:37:13 10° N 10:40:15 14° NE 10:43:15 10° ENE visible
10 Mar - 12:21:59 10° NNW 12:27:47 64° ENE 12:33:32 10° SE daylight
10 Mar - 14:09:31 10° WNW 14:13:31 19° WSW 14:17:32 10° SSW daylight
11 Mar - 01:46:31 10° SE 01:49:02 13° ESE 01:51:31 10° ENE night (unlit)
11 Mar - 03:28:18 10° SSW 03:34:29 85° ESE 03:40:32 10° NNE night (unlit)
11 Mar - 05:17:06 10° W 05:21:32 20° NW 05:25:55 10° N visible
11 Mar - 10:45:42 10° N 10:49:46 19° NE 10:53:47 10° E visible
11 Mar - 12:31:01 10° NNW 12:36:53 88° WSW 12:42:41 10° SSE daylight
11 Mar - 14:20:06 10° W 14:22:17 12° WSW 14:24:27 10° SW daylight
12 Mar - 01:53:31 10° SSE 01:57:48 20° ESE 02:02:02 10° ENE night (unlit)
12 Mar - 03:37:26 10° SW 03:43:35 68° WNW 03:49:35 10° NNE night (unlit)
12 Mar - 05:27:34 10° WNW 05:31:02 15° NW 05:34:27 10° N visible
12 Mar - 10:54:22 10° N 10:59:11 25° NE 11:03:56 10° E visible
12 Mar - 12:40:10 10° NW 12:45:54 59° WSW 12:51:35 10° SSE daylight
13 Mar - 02:01:24 10° SSE 02:06:39 30° ESE 02:11:47 10° NE night (unlit)
13 Mar - 03:46:50 10° SW 03:52:44 47° NW 03:58:32 10° NNE visible
13 Mar - 05:38:39 10° NW 05:40:37 11° NNW 05:42:34 10° NNW visible
13 Mar - 11:03:10 10° NNW 11:08:29 35° NE 11:13:46 10° ESE visible
13 Mar - 12:49:28 10° NW 12:54:50 39° WSW 13:00:10 10° S daylight
14 Mar - 02:09:45 10° S 02:15:33 44° ESE 02:21:14 10° NE night (unlit)
14 Mar - 03:56:29 10° WSW 04:02:00 34° NW 04:07:24 10° NNE visible
14 Mar - 09:27:57 10° NNE 09:29:54 12° NNE 09:31:50 10° NE visible
14 Mar - 11:12:03 10° NNW 11:17:43 50° NE 11:23:20 10° SE visible
14 Mar - 12:58:59 10° NW 13:03:42 26° WSW 13:08:25 10° SSW daylight
